Weather History for KVIH - June, 2013

Change the Weather History Date:

Saturday, June 8, 2013

  Actual Average Record
Temperature  
Mean Temperature 63 °F 70 °F  
Max Temperature 77 °F 81 °F 95 °F (2005)
Min Temperature 48 °F 60 °F 48 °F (2013)
Degree Days  
Heating Degree Days 2 1  
Month to date heating degree days 17 8  
Since 1 June heating degree days 17 8  
Since 1 July heating degree days 4957 4842  
Cooling Degree Days 0 6  
Month to date cooling degree days 3 43  
Year to date cooling degree days 110 150  
Since 1 June cooling degree days 3 43  
Growing Degree Days 14 (Base 50)    
Moisture  
Dew Point 54 °F    
Average Humidity 72    
Maximum Humidity 96    
Minimum Humidity 47    
Precipitation  
Precipitation 0.00 in 0.17 in 2.74 in (2010)
Month to date precipitation 0.37 1.32  
Year to date precipitation 21.67 18.13  
Sea Level Pressure  
Sea Level Pressure 29.92 in    
Wind  
Wind Speed 6 mph (South)    
Max Wind Speed 14 mph    
Max Gust Speed 17 mph    
Visibility 10 miles    
Events      
T = Trace of Precipitation, MM = Missing Value Source: NWS Daily Summary

Daily Weather History Graph

Daily Weather History Graph

Search for Another Location

Airport or City:

Trip Planner

Search our weather history database for the weather conditions in past years. The results will help you decide how hot, cold, wet, or windy it might be!

Date:

Astronomy

Jun. 08, 2013 Rise Set
Actual Time 5:43 AM CDT 8:28 PM CDT
Civil Twilight 5:12 AM CDT 9:00 PM CDT
Nautical Twilight 4:33 AM CDT 9:39 PM CDT
Astronomical Twilight 3:49 AM CDT 10:23 PM CDT
Moon 5:51 AM CDT (6/8) 8:32 PM CDT (6/8)
Length of Visible Light 15h 47m
Length of Day
14h 44m
New Moon, 0% of the Moon is Illuminated
Jun 8
New Moon
Jun 16
First Quarter
Jun 23
Full
Jun 29
Last Quarter
Jul 8
New

Hourly Weather History & Observations

Time (CDT) Temp. Dew Point Humidity Pressure Visibility Wind Dir Wind Speed Gust Speed Precip Events Conditions
12:53 AM 52.0 °F 50.0 °F 93% 29.92 in 10.0 mi Calm Calm - N/A   Clear
1:53 AM 54.0 °F 51.1 °F 90% 29.92 in 10.0 mi Calm Calm - N/A   Clear
2:53 AM 51.1 °F 48.9 °F 92% 29.91 in 10.0 mi Calm Calm - N/A   Clear
3:53 AM 50.0 °F 48.9 °F 96% 29.91 in 10.0 mi SW 3.5 mph - N/A   Clear
4:53 AM 51.1 °F 48.9 °F 92% 29.91 in 10.0 mi Calm Calm - N/A   Clear
5:53 AM 50.0 °F 48.9 °F 96% 29.93 in 7.0 mi SW 4.6 mph - N/A   Clear
6:53 AM 55.0 °F 54.0 °F 96% 29.96 in 9.0 mi Calm Calm - N/A   Clear
7:53 AM 59.0 °F 55.9 °F 90% 29.96 in 10.0 mi South 3.5 mph - N/A   Clear
8:53 AM 66.0 °F 57.0 °F 73% 29.96 in 10.0 mi South 3.5 mph - N/A   Clear
9:53 AM 69.1 °F 57.0 °F 65% 29.95 in 10.0 mi SSW 6.9 mph - N/A   Clear
10:53 AM 70.0 °F 53.1 °F 55% 29.95 in 10.0 mi SSW 6.9 mph - N/A   Partly Cloudy
11:53 AM 73.0 °F 53.1 °F 49% 29.95 in 10.0 mi SSW 8.1 mph - N/A   Clear
12:53 PM 72.0 °F 51.1 °F 48% 29.94 in 10.0 mi WSW 4.6 mph - N/A   Partly Cloudy
1:53 PM 72.0 °F 54.0 °F 53% 29.93 in 10.0 mi South 6.9 mph - N/A   Mostly Cloudy
2:53 PM 75.9 °F 55.0 °F 48% 29.91 in 10.0 mi SW 9.2 mph - N/A   Partly Cloudy
3:53 PM 77.0 °F 55.9 °F 48% 29.90 in 10.0 mi South 9.2 mph - N/A   Clear
4:53 PM 77.0 °F 55.0 °F 47% 29.90 in 10.0 mi SSW 6.9 mph - N/A   Clear
5:53 PM 75.9 °F 55.0 °F 48% 29.88 in 10.0 mi SSW 8.1 mph - N/A   Clear
6:53 PM 73.9 °F 57.0 °F 55% 29.88 in 10.0 mi SSE 6.9 mph - N/A   Clear
7:53 PM 71.1 °F 59.0 °F 66% 29.87 in 10.0 mi SE 5.8 mph - N/A   Clear
8:53 PM 66.9 °F 57.0 °F 70% 29.88 in 10.0 mi SE 5.8 mph - N/A   Clear
9:53 PM 66.0 °F 57.0 °F 73% 29.91 in 10.0 mi SE 8.1 mph - N/A   Clear
10:53 PM 64.9 °F 57.9 °F 78% 29.92 in 10.0 mi SE 8.1 mph - N/A   Clear
11:53 PM 64.9 °F 57.0 °F 75% 29.90 in 10.0 mi SSE 10.4 mph - N/A   Clear